Year,Month,Day,Hour,Minute,Value (Times are PST for temperature in C)
2014,08,10,00,00,16.10
2014,08,10,00,01,16.10
2014,08,10,00,02,16.00
2014,08,10,00,03,15.90
2014,08,10,00,04,15.90
2014,08,10,00,05,15.90
2014,08,10,00,06,15.90
2014,08,10,00,07,15.90
2014,08,10,00,08,15.90
2014,08,10,00,09,15.90
2014,08,10,00,10,15.90
2014,08,10,00,11,15.80
2014,08,10,00,12,15.80
2014,08,10,00,13,15.80
2014,08,10,00,14,15.80
2014,08,10,00,15,15.70
2014,08,10,00,16,15.70
2014,08,10,00,17,15.70
2014,08,10,00,18,15.60
2014,08,10,00,19,15.60
2014,08,10,00,20,15.60
2014,08,10,00,21,15.60
2014,08,10,00,22,15.60
2014,08,10,00,23,15.60
2014,08,10,00,24,15.60
2014,08,10,00,25,15.50
2014,08,10,00,26,15.50
2014,08,10,00,27,15.50
2014,08,10,00,28,15.50
2014,08,10,00,29,15.50
2014,08,10,00,30,15.50
2014,08,10,00,31,15.50
2014,08,10,00,32,15.50
2014,08,10,00,33,15.50
2014,08,10,00,34,15.50
2014,08,10,00,35,15.50
2014,08,10,00,36,15.50
2014,08,10,00,37,15.50
2014,08,10,00,38,15.50
2014,08,10,00,39,15.50
2014,08,10,00,40,15.50
2014,08,10,00,41,15.50
2014,08,10,00,42,15.50
2014,08,10,00,43,15.50
2014,08,10,00,44,15.50
2014,08,10,00,45,15.50
2014,08,10,00,46,15.50
2014,08,10,00,47,15.50
2014,08,10,00,48,15.50
2014,08,10,00,49,15.50
2014,08,10,00,50,15.40
2014,08,10,00,51,15.40
2014,08,10,00,52,15.40
2014,08,10,00,53,15.40
2014,08,10,00,54,15.40
2014,08,10,00,55,15.40
2014,08,10,00,56,15.40
2014,08,10,00,57,15.40
2014,08,10,00,58,15.30
2014,08,10,00,59,15.30
2014,08,10,01,00,15.30
2014,08,10,01,01,15.30
2014,08,10,01,02,15.30
2014,08,10,01,03,15.30
2014,08,10,01,04,15.30
2014,08,10,01,05,15.30
2014,08,10,01,06,15.30
2014,08,10,01,07,15.30
2014,08,10,01,08,15.30
2014,08,10,01,09,15.20
2014,08,10,01,10,15.20
2014,08,10,01,11,15.20
2014,08,10,01,12,15.20
2014,08,10,01,13,15.20
2014,08,10,01,14,15.20
2014,08,10,01,15,15.20
2014,08,10,01,16,15.20
2014,08,10,01,17,15.20
2014,08,10,01,18,15.20
2014,08,10,01,19,15.20
2014,08,10,01,20,15.20
2014,08,10,01,21,15.20
2014,08,10,01,22,15.20
2014,08,10,01,23,15.20
2014,08,10,01,24,15.20
2014,08,10,01,25,15.20
2014,08,10,01,26,15.10
2014,08,10,01,27,15.10
2014,08,10,01,28,15.10
2014,08,10,01,29,15.10
2014,08,10,01,30,15.10
2014,08,10,01,31,15.00
2014,08,10,01,32,15.00
2014,08,10,01,33,15.00
2014,08,10,01,34,15.00
2014,08,10,01,35,15.00
2014,08,10,01,36,15.00
2014,08,10,01,37,15.00
2014,08,10,01,38,15.00
2014,08,10,01,39,15.00
2014,08,10,01,40,15.00
2014,08,10,01,41,15.00
2014,08,10,01,42,15.00
2014,08,10,01,43,15.00
2014,08,10,01,44,15.00
2014,08,10,01,45,14.90
2014,08,10,01,46,14.90
2014,08,10,01,47,14.90
2014,08,10,01,48,14.90
2014,08,10,01,49,15.00
2014,08,10,01,50,15.00
2014,08,10,01,51,15.00
2014,08,10,01,52,15.00
2014,08,10,01,53,15.00
2014,08,10,01,54,15.00
2014,08,10,01,55,15.00
2014,08,10,01,56,14.90
2014,08,10,01,57,14.90
2014,08,10,01,58,14.90
2014,08,10,01,59,14.90
2014,08,10,02,00,14.90
2014,08,10,02,01,14.90
2014,08,10,02,02,14.90
2014,08,10,02,03,14.80
2014,08,10,02,04,14.80
2014,08,10,02,05,14.80
2014,08,10,02,06,14.80
2014,08,10,02,07,14.80
2014,08,10,02,08,14.80
2014,08,10,02,09,14.80
2014,08,10,02,10,14.80
2014,08,10,02,11,14.80
2014,08,10,02,12,14.80
2014,08,10,02,13,14.80
2014,08,10,02,14,14.80
2014,08,10,02,15,14.80
2014,08,10,02,16,14.80
2014,08,10,02,17,14.80
2014,08,10,02,18,14.80
2014,08,10,02,19,14.80
2014,08,10,02,20,14.80
2014,08,10,02,21,14.80
2014,08,10,02,22,14.80
2014,08,10,02,23,14.80
2014,08,10,02,24,14.90
2014,08,10,02,25,14.90
2014,08,10,02,26,14.90
2014,08,10,02,27,14.90
2014,08,10,02,28,14.90
2014,08,10,02,29,14.90
2014,08,10,02,30,14.90
2014,08,10,02,31,14.90
2014,08,10,02,32,14.90
2014,08,10,02,33,14.90
2014,08,10,02,34,15.00
2014,08,10,02,35,15.00
2014,08,10,02,36,15.00
2014,08,10,02,37,15.00
2014,08,10,02,38,15.00
2014,08,10,02,39,15.00
2014,08,10,02,40,15.00
2014,08,10,02,41,15.00
2014,08,10,02,42,15.10
2014,08,10,02,43,15.10
2014,08,10,02,44,15.10
2014,08,10,02,45,15.10
2014,08,10,02,46,15.10
2014,08,10,02,47,15.10
2014,08,10,02,48,15.10
2014,08,10,02,49,15.00
2014,08,10,02,50,15.00
2014,08,10,02,51,14.90
2014,08,10,02,52,14.90
2014,08,10,02,53,14.80
2014,08,10,02,54,14.80
2014,08,10,02,55,14.80
2014,08,10,02,56,14.80
2014,08,10,02,57,14.80
2014,08,10,02,58,14.80
2014,08,10,02,59,14.80
2014,08,10,03,00,14.80
2014,08,10,03,01,14.80
2014,08,10,03,02,14.80
2014,08,10,03,03,14.70
2014,08,10,03,04,14.70
2014,08,10,03,05,14.60
2014,08,10,03,06,14.60
2014,08,10,03,07,14.50
2014,08,10,03,08,14.50
2014,08,10,03,09,14.50
2014,08,10,03,10,14.40
2014,08,10,03,11,14.40
2014,08,10,03,12,14.30
2014,08,10,03,13,14.20
2014,08,10,03,14,14.20
2014,08,10,03,15,14.20
2014,08,10,03,16,14.20
2014,08,10,03,17,14.20
2014,08,10,03,18,14.20
2014,08,10,03,19,14.20
2014,08,10,03,20,14.20
2014,08,10,03,21,14.20
2014,08,10,03,22,14.20
2014,08,10,03,23,14.20
2014,08,10,03,24,14.20
2014,08,10,03,25,14.10
2014,08,10,03,26,14.10
2014,08,10,03,27,14.00
2014,08,10,03,28,14.00
2014,08,10,03,29,13.90
2014,08,10,03,30,13.90
2014,08,10,03,31,13.80
2014,08,10,03,32,13.80
2014,08,10,03,33,13.80
2014,08,10,03,34,13.70
2014,08,10,03,35,13.70
2014,08,10,03,36,13.70
2014,08,10,03,37,13.70
2014,08,10,03,38,13.70
2014,08,10,03,39,13.70
2014,08,10,03,40,13.70
2014,08,10,03,41,13.70
2014,08,10,03,42,13.70
2014,08,10,03,43,13.60
2014,08,10,03,44,13.60
2014,08,10,03,45,13.60
2014,08,10,03,46,13.60
2014,08,10,03,47,13.60
2014,08,10,03,48,13.60
2014,08,10,03,49,13.60
2014,08,10,03,50,13.60
2014,08,10,03,51,13.60
2014,08,10,03,52,13.60
2014,08,10,03,53,13.60
2014,08,10,03,54,13.60
2014,08,10,03,55,13.60
2014,08,10,03,56,13.60
2014,08,10,03,57,13.60
2014,08,10,03,58,13.60
2014,08,10,03,59,13.70
2014,08,10,04,00,13.70
2014,08,10,04,01,13.60
2014,08,10,04,02,13.60
2014,08,10,04,03,13.60
2014,08,10,04,04,13.60
2014,08,10,04,05,13.50
2014,08,10,04,06,13.50
2014,08,10,04,07,13.50
2014,08,10,04,08,13.50
2014,08,10,04,09,13.50
2014,08,10,04,10,13.40
2014,08,10,04,11,13.40
2014,08,10,04,12,13.40
2014,08,10,04,13,13.40
2014,08,10,04,14,13.40
2014,08,10,04,15,13.40
2014,08,10,04,16,13.40
2014,08,10,04,17,13.40
2014,08,10,04,18,13.40
2014,08,10,04,19,13.40
2014,08,10,04,20,13.40
2014,08,10,04,21,13.40
2014,08,10,04,22,13.40
2014,08,10,04,23,13.40
2014,08,10,04,24,13.40
2014,08,10,04,25,13.40
2014,08,10,04,26,13.40
2014,08,10,04,27,13.40
2014,08,10,04,28,13.40
2014,08,10,04,29,13.40
2014,08,10,04,30,13.40
2014,08,10,04,31,13.40
2014,08,10,04,32,13.40
2014,08,10,04,33,13.40
2014,08,10,04,34,13.40
2014,08,10,04,35,13.40
2014,08,10,04,36,13.40
2014,08,10,04,37,13.40
2014,08,10,04,38,13.40
2014,08,10,04,39,13.40
2014,08,10,04,40,13.40
2014,08,10,04,41,13.40
2014,08,10,04,42,13.40
2014,08,10,04,43,13.40
2014,08,10,04,44,13.40
2014,08,10,04,45,13.40
2014,08,10,04,46,13.40
2014,08,10,04,47,13.40
2014,08,10,04,48,13.40
2014,08,10,04,49,13.40
2014,08,10,04,50,13.40
2014,08,10,04,51,13.40
2014,08,10,04,52,13.40
2014,08,10,04,53,13.50
2014,08,10,04,54,13.50
2014,08,10,04,55,13.50
2014,08,10,04,56,13.50
2014,08,10,04,57,13.50
2014,08,10,04,58,13.60
2014,08,10,04,59,13.60
2014,08,10,05,00,13.60
2014,08,10,05,01,13.60
2014,08,10,05,02,13.70
2014,08,10,05,03,13.70
2014,08,10,05,04,13.70
2014,08,10,05,05,13.70
2014,08,10,05,06,13.70
2014,08,10,05,07,13.70
2014,08,10,05,08,13.70
2014,08,10,05,09,13.70
2014,08,10,05,10,13.80
2014,08,10,05,11,13.80
2014,08,10,05,12,13.80
2014,08,10,05,13,13.90
2014,08,10,05,14,13.90
2014,08,10,05,15,13.90
2014,08,10,05,16,13.90
2014,08,10,05,17,14.00
2014,08,10,05,18,14.00
2014,08,10,05,19,14.00
2014,08,10,05,20,14.00
2014,08,10,05,21,14.00
2014,08,10,05,22,14.10
2014,08,10,05,23,14.10
2014,08,10,05,24,14.10
2014,08,10,05,25,14.20
2014,08,10,05,26,14.20
2014,08,10,05,27,14.20
2014,08,10,05,28,14.20
2014,08,10,05,29,14.20
2014,08,10,05,30,14.30
2014,08,10,05,31,14.30
2014,08,10,05,32,14.30
2014,08,10,05,33,14.30
2014,08,10,05,34,14.40
2014,08,10,05,35,14.40
2014,08,10,05,36,14.40
2014,08,10,05,37,14.40
2014,08,10,05,38,14.40
2014,08,10,05,39,14.40
2014,08,10,05,40,14.40
2014,08,10,05,41,14.50
2014,08,10,05,42,14.50
2014,08,10,05,43,14.50
2014,08,10,05,44,14.50
2014,08,10,05,45,14.50
2014,08,10,05,46,14.50
2014,08,10,05,47,14.50
2014,08,10,05,48,14.50
2014,08,10,05,49,14.50
2014,08,10,05,50,14.50
2014,08,10,05,51,14.40
2014,08,10,05,52,14.40
2014,08,10,05,53,14.30
2014,08,10,05,54,14.20
2014,08,10,05,55,14.20
2014,08,10,05,56,14.10
2014,08,10,05,57,14.00
2014,08,10,05,58,13.90
2014,08,10,05,59,13.90
2014,08,10,06,00,13.80
2014,08,10,06,01,13.70
2014,08,10,06,02,13.70
2014,08,10,06,03,13.70
2014,08,10,06,04,13.60
2014,08,10,06,05,13.60
2014,08,10,06,06,13.50
2014,08,10,06,07,13.50
2014,08,10,06,08,13.50
2014,08,10,06,09,13.50
2014,08,10,06,10,13.40
2014,08,10,06,11,13.40
2014,08,10,06,12,13.40
2014,08,10,06,13,13.30
2014,08,10,06,14,13.30
2014,08,10,06,15,13.30
2014,08,10,06,16,13.30
2014,08,10,06,17,13.30
2014,08,10,06,18,13.30
2014,08,10,06,19,13.30
2014,08,10,06,20,13.30
2014,08,10,06,21,13.30
2014,08,10,06,22,13.30
2014,08,10,06,23,13.30
2014,08,10,06,24,13.30
2014,08,10,06,25,13.30
2014,08,10,06,26,13.30
2014,08,10,06,27,13.30
2014,08,10,06,28,13.20
2014,08,10,06,29,13.20
2014,08,10,06,30,13.20
2014,08,10,06,31,13.20
2014,08,10,06,32,13.20
2014,08,10,06,33,13.20
2014,08,10,06,34,13.20
2014,08,10,06,35,13.20
2014,08,10,06,36,13.20
2014,08,10,06,37,13.20
2014,08,10,06,38,13.20
2014,08,10,06,39,13.20
2014,08,10,06,40,13.20
2014,08,10,06,41,13.10
2014,08,10,06,42,13.10
2014,08,10,06,43,13.10
2014,08,10,06,44,13.10
2014,08,10,06,45,13.20
2014,08,10,06,46,13.20
2014,08,10,06,47,13.20
2014,08,10,06,48,13.20
2014,08,10,06,49,13.20
2014,08,10,06,50,13.20
2014,08,10,06,51,13.20
2014,08,10,06,52,13.30
2014,08,10,06,53,13.30
2014,08,10,06,54,13.30
2014,08,10,06,55,13.30
2014,08,10,06,56,13.30
2014,08,10,06,57,13.30
2014,08,10,06,58,13.40
2014,08,10,06,59,13.40
2014,08,10,07,00,13.50
2014,08,10,07,01,13.50
2014,08,10,07,02,13.60
2014,08,10,07,03,13.60
2014,08,10,07,04,13.70
2014,08,10,07,05,13.70
2014,08,10,07,06,13.80
2014,08,10,07,07,13.90
2014,08,10,07,08,14.00
2014,08,10,07,09,14.00
2014,08,10,07,10,14.10
2014,08,10,07,11,14.10
2014,08,10,07,12,14.10
2014,08,10,07,13,14.20
2014,08,10,07,14,14.20
2014,08,10,07,15,14.30
2014,08,10,07,16,14.40
2014,08,10,07,17,14.50
2014,08,10,07,18,14.60
2014,08,10,07,19,14.60
2014,08,10,07,20,14.70
2014,08,10,07,21,14.80
2014,08,10,07,22,14.80
2014,08,10,07,23,14.80
2014,08,10,07,24,14.90
2014,08,10,07,25,14.90
2014,08,10,07,26,14.90
2014,08,10,07,27,14.90
2014,08,10,07,28,14.90
2014,08,10,07,29,15.00
2014,08,10,07,30,15.00
2014,08,10,07,31,15.10
2014,08,10,07,32,15.20
2014,08,10,07,33,15.30
2014,08,10,07,34,15.40
2014,08,10,07,35,15.50
2014,08,10,07,36,15.60
2014,08,10,07,37,15.60
2014,08,10,07,38,15.80
2014,08,10,07,39,15.80
2014,08,10,07,40,15.80
2014,08,10,07,41,15.90
2014,08,10,07,42,15.90
2014,08,10,07,43,15.90
2014,08,10,07,44,15.90
2014,08,10,07,45,16.00
2014,08,10,07,46,16.10
2014,08,10,07,47,16.10
2014,08,10,07,48,16.10
2014,08,10,07,49,16.20
2014,08,10,07,50,16.40
2014,08,10,07,51,16.50
2014,08,10,07,52,16.60
2014,08,10,07,53,16.60
2014,08,10,07,54,16.70
2014,08,10,07,55,16.70
2014,08,10,07,56,16.80
2014,08,10,07,57,16.80
2014,08,10,07,58,16.80
2014,08,10,07,59,16.90
2014,08,10,08,00,16.90
2014,08,10,08,01,17.00
2014,08,10,08,02,17.10
2014,08,10,08,03,17.20
2014,08,10,08,04,17.30
2014,08,10,08,05,17.30
2014,08,10,08,06,17.40
2014,08,10,08,07,17.50
2014,08,10,08,08,17.60
2014,08,10,08,09,17.70
2014,08,10,08,10,17.80
2014,08,10,08,11,17.90
2014,08,10,08,12,17.90
2014,08,10,08,13,18.00
2014,08,10,08,14,18.10
2014,08,10,08,15,18.10
2014,08,10,08,16,18.10
2014,08,10,08,17,18.10
2014,08,10,08,18,18.10
2014,08,10,08,19,18.10
2014,08,10,08,20,18.10
2014,08,10,08,21,18.10
2014,08,10,08,22,18.20
2014,08,10,08,23,18.20
2014,08,10,08,24,18.20
2014,08,10,08,25,18.20
2014,08,10,08,26,18.20
2014,08,10,08,27,18.20
2014,08,10,08,28,18.20
2014,08,10,08,29,18.20
2014,08,10,08,30,18.30
2014,08,10,08,31,18.30
2014,08,10,08,32,18.40
2014,08,10,08,33,18.40
2014,08,10,08,34,18.50
2014,08,10,08,35,18.50
2014,08,10,08,36,18.60
2014,08,10,08,37,18.60
2014,08,10,08,38,18.60
2014,08,10,08,39,18.60
2014,08,10,08,40,18.60
2014,08,10,08,41,18.60
2014,08,10,08,42,18.60
2014,08,10,08,43,18.60
2014,08,10,08,44,18.60
2014,08,10,08,45,18.70
2014,08,10,08,46,18.70
2014,08,10,08,47,18.70
2014,08,10,08,48,18.80
2014,08,10,08,49,18.90
2014,08,10,08,50,18.90
2014,08,10,08,51,18.90
2014,08,10,08,52,18.90
2014,08,10,08,53,19.10
2014,08,10,08,54,19.10
2014,08,10,08,55,19.10
2014,08,10,08,56,19.10
2014,08,10,08,57,19.10
2014,08,10,08,58,19.10
2014,08,10,08,59,19.20
2014,08,10,09,00,19.20
2014,08,10,09,01,19.30
2014,08,10,09,02,19.40
2014,08,10,09,03,19.40
2014,08,10,09,04,19.50
2014,08,10,09,05,19.60
2014,08,10,09,06,19.60
2014,08,10,09,07,19.70
2014,08,10,09,08,19.80
2014,08,10,09,09,19.90
2014,08,10,09,10,19.90
2014,08,10,09,11,20.00
2014,08,10,09,12,20.10
2014,08,10,09,13,20.20
2014,08,10,09,14,20.20
2014,08,10,09,15,20.20
2014,08,10,09,16,20.20
2014,08,10,09,17,20.30
2014,08,10,09,18,20.30
2014,08,10,09,19,20.40
2014,08,10,09,20,20.40
2014,08,10,09,21,20.40
2014,08,10,09,22,20.40
2014,08,10,09,23,20.40
2014,08,10,09,24,20.40
2014,08,10,09,25,20.40
2014,08,10,09,26,20.40
2014,08,10,09,27,20.40
2014,08,10,09,28,20.40
2014,08,10,09,29,20.40
2014,08,10,09,30,20.50
2014,08,10,09,31,20.50
2014,08,10,09,32,20.60
2014,08,10,09,33,20.60
2014,08,10,09,34,20.60
2014,08,10,09,35,20.70
2014,08,10,09,36,20.70
2014,08,10,09,37,20.70
2014,08,10,09,38,20.70
2014,08,10,09,39,20.70
2014,08,10,09,40,20.70
2014,08,10,09,41,20.70
2014,08,10,09,42,20.70
2014,08,10,09,43,20.80
2014,08,10,09,44,20.80
2014,08,10,09,45,20.80
2014,08,10,09,46,20.80
2014,08,10,09,47,20.80
2014,08,10,09,48,20.80
2014,08,10,09,49,20.80
2014,08,10,09,50,20.80
2014,08,10,09,51,20.80
2014,08,10,09,52,20.80
2014,08,10,09,53,20.80
2014,08,10,09,54,20.80
2014,08,10,09,55,20.80
2014,08,10,09,56,20.80
2014,08,10,09,57,20.80
2014,08,10,09,58,20.80
2014,08,10,09,59,20.80
2014,08,10,10,00,20.80
2014,08,10,10,01,20.80
2014,08,10,10,02,20.90
2014,08,10,10,03,20.90
2014,08,10,10,04,20.90
2014,08,10,10,05,21.00
2014,08,10,10,06,21.00
2014,08,10,10,07,21.00
2014,08,10,10,08,21.00
2014,08,10,10,09,21.00
2014,08,10,10,10,21.00
2014,08,10,10,11,21.10
2014,08,10,10,12,21.10
2014,08,10,10,13,21.20
2014,08,10,10,14,21.30
2014,08,10,10,15,21.30
2014,08,10,10,16,21.30
2014,08,10,10,17,21.30
2014,08,10,10,18,21.20
2014,08,10,10,19,21.10
2014,08,10,10,20,21.10
2014,08,10,10,21,21.10
2014,08,10,10,22,21.00
2014,08,10,10,23,21.00
2014,08,10,10,24,21.00
2014,08,10,10,25,21.00
2014,08,10,10,26,20.90
2014,08,10,10,27,21.00
2014,08,10,10,28,21.00
2014,08,10,10,29,21.00
2014,08,10,10,30,21.00
2014,08,10,10,31,21.00
2014,08,10,10,32,21.10
2014,08,10,10,33,21.10
2014,08,10,10,34,21.20
2014,08,10,10,35,21.20
2014,08,10,10,36,21.30
2014,08,10,10,37,21.30
2014,08,10,10,38,21.30
2014,08,10,10,39,21.40
2014,08,10,10,40,21.40
2014,08,10,10,41,21.40
2014,08,10,10,42,21.40
2014,08,10,10,43,21.40
2014,08,10,10,44,21.40
2014,08,10,10,45,21.40
2014,08,10,10,46,21.40
2014,08,10,10,47,21.50
2014,08,10,10,48,21.60
2014,08,10,10,49,21.60
2014,08,10,10,50,21.60
2014,08,10,10,51,21.60
2014,08,10,10,52,21.70
2014,08,10,10,53,21.70
2014,08,10,10,54,21.70
2014,08,10,10,55,21.80
2014,08,10,10,56,21.80
2014,08,10,10,57,21.80
2014,08,10,10,58,21.80
2014,08,10,10,59,21.70
2014,08,10,11,00,21.70
2014,08,10,11,01,21.70
2014,08,10,11,02,21.60
2014,08,10,11,03,21.70
2014,08,10,11,04,21.70
2014,08,10,11,05,21.70
2014,08,10,11,06,21.70
2014,08,10,11,07,21.70
2014,08,10,11,08,21.80
2014,08,10,11,09,21.80
2014,08,10,11,10,21.80
2014,08,10,11,11,21.80
2014,08,10,11,12,21.70
2014,08,10,11,13,21.70
2014,08,10,11,14,21.70
2014,08,10,11,15,21.70
2014,08,10,11,16,21.70
2014,08,10,11,17,21.80
2014,08,10,11,18,21.80
2014,08,10,11,19,21.90
2014,08,10,11,20,21.90
2014,08,10,11,21,21.90
2014,08,10,11,22,21.90
2014,08,10,11,23,22.00
2014,08,10,11,24,22.00
2014,08,10,11,25,22.10
2014,08,10,11,26,22.20
2014,08,10,11,27,22.20
2014,08,10,11,28,22.30
2014,08,10,11,29,22.30
2014,08,10,11,30,22.30
2014,08,10,11,31,22.40
2014,08,10,11,32,22.40
2014,08,10,11,33,22.40
2014,08,10,11,34,22.30
2014,08,10,11,35,22.30
2014,08,10,11,36,22.30
2014,08,10,11,37,22.30
2014,08,10,11,38,22.30
2014,08,10,11,39,22.30
2014,08,10,11,40,22.30
2014,08,10,11,41,22.30
2014,08,10,11,42,22.30
2014,08,10,11,43,22.30
2014,08,10,11,44,22.40
2014,08,10,11,45,22.50
2014,08,10,11,46,22.70
2014,08,10,11,47,22.80
2014,08,10,11,48,22.90
2014,08,10,11,49,23.00
2014,08,10,11,50,23.10
2014,08,10,11,51,23.10
2014,08,10,11,52,23.20
2014,08,10,11,53,23.20
2014,08,10,11,54,23.20
2014,08,10,11,55,23.20
2014,08,10,11,56,23.10
2014,08,10,11,57,23.00
2014,08,10,11,58,22.90
2014,08,10,11,59,22.80
2014,08,10,12,00,22.80
2014,08,10,12,01,22.80
2014,08,10,12,02,22.70
2014,08,10,12,03,22.70
2014,08,10,12,04,22.80
2014,08,10,12,05,22.80
2014,08,10,12,06,22.80
2014,08,10,12,07,22.90
2014,08,10,12,08,23.00
2014,08,10,12,09,23.10
2014,08,10,12,10,23.20
2014,08,10,12,11,23.30
2014,08,10,12,12,23.30
2014,08,10,12,13,23.40
2014,08,10,12,14,23.40
2014,08,10,12,15,23.50
2014,08,10,12,16,23.60
2014,08,10,12,17,23.60
2014,08,10,12,18,23.60
2014,08,10,12,19,23.60
2014,08,10,12,20,23.70
2014,08,10,12,21,23.70
2014,08,10,12,22,23.70
2014,08,10,12,23,23.70
2014,08,10,12,24,23.80
2014,08,10,12,25,23.80
2014,08,10,12,26,23.90
2014,08,10,12,27,24.00
2014,08,10,12,28,24.10
2014,08,10,12,29,24.10
2014,08,10,12,30,24.00
2014,08,10,12,31,23.90
2014,08,10,12,32,23.90
2014,08,10,12,33,23.90
2014,08,10,12,34,23.90
2014,08,10,12,35,23.80
2014,08,10,12,36,23.90
2014,08,10,12,37,23.90
2014,08,10,12,38,23.90
2014,08,10,12,39,23.90
2014,08,10,12,40,23.80
2014,08,10,12,41,23.80
2014,08,10,12,42,23.70
2014,08,10,12,43,23.80
2014,08,10,12,44,23.80
2014,08,10,12,45,23.90
2014,08,10,12,46,24.00
2014,08,10,12,47,24.10
2014,08,10,12,48,24.10
2014,08,10,12,49,23.90
2014,08,10,12,50,23.90
2014,08,10,12,51,23.90
2014,08,10,12,52,24.00
2014,08,10,12,53,24.10
2014,08,10,12,54,24.10
2014,08,10,12,55,24.10
2014,08,10,12,56,24.10
2014,08,10,12,57,24.10
2014,08,10,12,58,24.10
2014,08,10,12,59,24.10
2014,08,10,13,00,24.10
2014,08,10,13,01,24.10
2014,08,10,13,02,24.00
2014,08,10,13,03,23.90
2014,08,10,13,04,23.90
2014,08,10,13,05,23.90
2014,08,10,13,06,23.90
2014,08,10,13,07,24.00
2014,08,10,13,08,24.10
2014,08,10,13,09,24.10
2014,08,10,13,10,24.20
2014,08,10,13,11,24.20
2014,08,10,13,12,24.30
2014,08,10,13,13,24.30
2014,08,10,13,14,24.30
2014,08,10,13,15,24.30
2014,08,10,13,16,24.40
2014,08,10,13,17,24.50
2014,08,10,13,18,24.50
2014,08,10,13,19,24.70
2014,08,10,13,20,24.80
2014,08,10,13,21,24.80
2014,08,10,13,22,24.70
2014,08,10,13,23,24.50
2014,08,10,13,24,24.40
2014,08,10,13,25,24.30
2014,08,10,13,26,24.10
2014,08,10,13,27,24.10
2014,08,10,13,28,24.10
2014,08,10,13,29,24.10
2014,08,10,13,30,24.20
2014,08,10,13,31,24.30
2014,08,10,13,32,24.40
2014,08,10,13,33,24.50
2014,08,10,13,34,24.50
2014,08,10,13,35,24.60
2014,08,10,13,36,24.70
2014,08,10,13,37,24.70
2014,08,10,13,38,24.90
2014,08,10,13,39,24.90
2014,08,10,13,40,25.00
2014,08,10,13,41,24.90
2014,08,10,13,42,24.90
2014,08,10,13,43,24.90
2014,08,10,13,44,24.90
2014,08,10,13,45,24.80
2014,08,10,13,46,24.80
2014,08,10,13,47,24.80
2014,08,10,13,48,24.80
2014,08,10,13,49,24.80
2014,08,10,13,50,24.80
2014,08,10,13,51,24.70
2014,08,10,13,52,24.70
2014,08,10,13,53,24.70
2014,08,10,13,54,24.70
2014,08,10,13,55,24.70
2014,08,10,13,56,24.80
2014,08,10,13,57,24.90
2014,08,10,13,58,24.90
2014,08,10,13,59,25.00
2014,08,10,14,00,25.10
2014,08,10,14,01,25.10
2014,08,10,14,02,25.10
2014,08,10,14,03,25.20
2014,08,10,14,04,25.20
2014,08,10,14,05,25.30
2014,08,10,14,06,25.30
2014,08,10,14,07,25.30
2014,08,10,14,08,25.30
2014,08,10,14,09,25.30
2014,08,10,14,10,25.10
2014,08,10,14,11,25.00
2014,08,10,14,12,24.90
2014,08,10,14,13,24.90
2014,08,10,14,14,24.90
2014,08,10,14,15,24.80
2014,08,10,14,16,24.80
2014,08,10,14,17,24.90
2014,08,10,14,18,24.90
2014,08,10,14,19,24.90
2014,08,10,14,20,24.90
2014,08,10,14,21,24.90
2014,08,10,14,22,24.90
2014,08,10,14,23,24.90
2014,08,10,14,24,24.90
2014,08,10,14,25,24.90
2014,08,10,14,26,24.90
2014,08,10,14,27,25.00
2014,08,10,14,28,25.00
2014,08,10,14,29,25.10
2014,08,10,14,30,25.10
2014,08,10,14,31,25.20
2014,08,10,14,32,25.40
2014,08,10,14,33,25.40
2014,08,10,14,34,25.50
2014,08,10,14,35,25.60
2014,08,10,14,36,25.60
2014,08,10,14,37,25.60
2014,08,10,14,38,25.70
2014,08,10,14,39,25.70
2014,08,10,14,40,25.80
2014,08,10,14,41,25.80
2014,08,10,14,42,25.80
2014,08,10,14,43,25.80
2014,08,10,14,44,25.80
2014,08,10,14,45,25.80
2014,08,10,14,46,25.80
2014,08,10,14,47,25.60
2014,08,10,14,48,25.60
2014,08,10,14,49,25.70
2014,08,10,14,50,25.70
2014,08,10,14,51,25.70
2014,08,10,14,52,25.70
2014,08,10,14,53,25.70
2014,08,10,14,54,25.70
2014,08,10,14,55,25.70
2014,08,10,14,56,25.80
2014,08,10,14,57,25.80
2014,08,10,14,58,25.80
2014,08,10,14,59,25.80
2014,08,10,15,00,25.80
2014,08,10,15,01,25.80
2014,08,10,15,02,25.90
2014,08,10,15,03,25.90
2014,08,10,15,04,26.00
2014,08,10,15,05,26.10
2014,08,10,15,06,26.10
2014,08,10,15,07,26.10
2014,08,10,15,08,26.00
2014,08,10,15,09,26.00
2014,08,10,15,10,26.00
2014,08,10,15,11,26.00
2014,08,10,15,12,26.00
2014,08,10,15,13,26.00
2014,08,10,15,14,26.10
2014,08,10,15,15,26.10
2014,08,10,15,16,26.10
2014,08,10,15,17,26.20
2014,08,10,15,18,26.20
2014,08,10,15,19,26.20
2014,08,10,15,20,26.20
2014,08,10,15,21,26.20
2014,08,10,15,22,26.20
2014,08,10,15,23,26.20
2014,08,10,15,24,26.20
2014,08,10,15,25,26.10
2014,08,10,15,26,26.00
2014,08,10,15,27,25.90
2014,08,10,15,28,25.90
2014,08,10,15,29,25.90
2014,08,10,15,30,25.90
2014,08,10,15,31,26.00
2014,08,10,15,32,26.00
2014,08,10,15,33,26.00
2014,08,10,15,34,26.00
2014,08,10,15,35,26.00
2014,08,10,15,36,26.00
2014,08,10,15,37,26.10
2014,08,10,15,38,26.10
2014,08,10,15,39,26.10
2014,08,10,15,40,26.10
2014,08,10,15,41,26.10
2014,08,10,15,42,26.10
2014,08,10,15,43,26.10
2014,08,10,15,44,26.10
2014,08,10,15,45,26.00
2014,08,10,15,46,25.90
2014,08,10,15,47,25.80
2014,08,10,15,48,25.80
2014,08,10,15,49,25.70
2014,08,10,15,50,25.60
2014,08,10,15,51,25.60
2014,08,10,15,52,25.60
2014,08,10,15,53,25.60
2014,08,10,15,54,25.60
2014,08,10,15,55,25.60
2014,08,10,15,56,25.60
2014,08,10,15,57,25.60
2014,08,10,15,58,25.70
2014,08,10,15,59,25.70
2014,08,10,16,00,25.80
2014,08,10,16,01,25.90
2014,08,10,16,02,25.90
2014,08,10,16,03,25.90
2014,08,10,16,04,26.00
2014,08,10,16,05,25.90
2014,08,10,16,06,25.80
2014,08,10,16,07,25.70
2014,08,10,16,08,25.60
2014,08,10,16,09,25.50
2014,08,10,16,10,25.50
2014,08,10,16,11,25.40
2014,08,10,16,12,25.40
2014,08,10,16,13,25.30
2014,08,10,16,14,25.30
2014,08,10,16,15,25.30
2014,08,10,16,16,25.30
2014,08,10,16,17,25.40
2014,08,10,16,18,25.40
2014,08,10,16,19,25.40
2014,08,10,16,20,25.40
2014,08,10,16,21,25.40
2014,08,10,16,22,25.50
2014,08,10,16,23,25.50
2014,08,10,16,24,25.60
2014,08,10,16,25,25.60
2014,08,10,16,26,25.70
2014,08,10,16,27,25.70
2014,08,10,16,28,25.70
2014,08,10,16,29,25.60
2014,08,10,16,30,25.50
2014,08,10,16,31,25.40
2014,08,10,16,32,25.20
2014,08,10,16,33,25.10
2014,08,10,16,34,25.00
2014,08,10,16,35,24.90
2014,08,10,16,36,24.90
2014,08,10,16,37,24.90
2014,08,10,16,38,24.80
2014,08,10,16,39,24.80
2014,08,10,16,40,24.90
2014,08,10,16,41,25.00
2014,08,10,16,42,25.00
2014,08,10,16,43,25.10
2014,08,10,16,44,25.20
2014,08,10,16,45,25.30
2014,08,10,16,46,25.40
2014,08,10,16,47,25.50
2014,08,10,16,48,25.60
2014,08,10,16,49,25.60
2014,08,10,16,50,25.70
2014,08,10,16,51,25.70
2014,08,10,16,52,25.60
2014,08,10,16,53,25.50
2014,08,10,16,54,25.50
2014,08,10,16,55,25.50
2014,08,10,16,56,25.50
2014,08,10,16,57,25.40
2014,08,10,16,58,25.40
2014,08,10,16,59,25.40
2014,08,10,17,00,25.40
2014,08,10,17,01,25.40
2014,08,10,17,02,25.40
2014,08,10,17,03,25.40
2014,08,10,17,04,25.30
2014,08,10,17,05,25.30
2014,08,10,17,06,25.20
2014,08,10,17,07,25.20
2014,08,10,17,08,25.10
2014,08,10,17,09,25.00
2014,08,10,17,10,25.00
2014,08,10,17,11,24.90
2014,08,10,17,12,24.90
2014,08,10,17,13,24.90
2014,08,10,17,14,24.90
2014,08,10,17,15,25.00
2014,08,10,17,16,25.00
2014,08,10,17,17,25.00
2014,08,10,17,18,25.10
2014,08,10,17,19,25.10